Weather History for Waskish, MN

Change the Weather History Date:

Saturday, November 17, 2012

  Actual Average (KBDE) Record (KBDE)
Temperature  
Mean Temperature 40 °F -  
Max Temperature 46 °F 35 °F 68 °F (1953)
Min Temperature 33 °F 20 °F -9 °F (1959)
Degree Days  
Heating Degree Days 26    
Moisture  
Dew Point 31 °F    
Average Humidity 70    
Maximum Humidity 81    
Minimum Humidity 56    
Precipitation  
Precipitation 0.00 in - - ()
Sea Level Pressure  
Sea Level Pressure 30.10 in    
Wind  
Wind Speed 8 mph (SSE)    
Max Wind Speed 13 mph    
Max Gust Speed 20 mph    
Visibility 10 miles    
Events      
Averages and records for this station are not official NWS values.
T = Trace of Precipitation, MM = Missing Value Source: NWS Daily Summary

Daily Weather History Graph

Daily Weather History Graph

Search for Another Location

Airport:

Trip Planner

Search our weather history database for the weather conditions in past years. The results will help you decide how hot, cold, wet, or windy it might be!

Date:

Astronomy

Nov. 17, 2012 Rise Set
Actual Time 7:28 AM CST 4:37 PM CST
Civil Twilight 6:54 AM CST 5:11 PM CST
Nautical Twilight 6:16 AM CST 5:49 PM CST
Astronomical Twilight 5:39 AM CST 6:26 PM CST
Moon 11:14 AM CST (11/17) 8:49 PM CST (11/17)
Length of Visible Light 10h 16m
Length of Day
9h 08m
Waxing Crescent, 20% of the Moon is Illuminated
Nov 17
Waxing Crescent
Nov 20
First Quarter
Nov 28
Full
Dec 6
Last Quarter
Dec 13
New

Hourly Weather History & Observations

Time (CST) Temp. Windchill Dew Point Humidity Pressure Visibility Wind Dir Wind Speed Gust Speed Precip Events Conditions
12:10 AM 33.8 °F 24.8 °F 19.4 °F 56% 30.13 in 10.0 mi SE 12.7 mph 18.4 mph N/A   Clear
12:30 AM 33.8 °F 25.8 °F 19.4 °F 56% 30.13 in 10.0 mi SSE 10.4 mph 18.4 mph N/A   Clear
12:49 AM 33.8 °F 24.8 °F 21.2 °F 60% 30.12 in 10.0 mi SE 12.7 mph 19.6 mph N/A   Clear
1:10 AM 33.8 °F 26.4 °F 21.2 °F 60% 30.12 in 10.0 mi SE 9.2 mph 19.6 mph N/A   Clear
1:30 AM 33.8 °F 25.8 °F 21.2 °F 60% 30.11 in 10.0 mi SSE 10.4 mph - N/A   Clear
1:50 AM 35.6 °F 29.2 °F 23.0 °F 60% 30.11 in 10.0 mi SSE 8.1 mph 16.1 mph N/A   Clear
2:10 AM 35.6 °F 28.6 °F 23.0 °F 60% 30.11 in 10.0 mi SSE 9.2 mph 18.4 mph N/A   Clear
2:30 AM 35.6 °F 29.2 °F 24.8 °F 65% 30.11 in 10.0 mi SE 8.1 mph 17.3 mph N/A   Clear
2:50 AM 35.6 °F 29.9 °F 24.8 °F 65% 30.11 in 10.0 mi SSE 6.9 mph - N/A   Clear
3:10 AM 35.6 °F 29.2 °F 24.8 °F 65% 30.10 in 10.0 mi SSE 8.1 mph - N/A   Clear
3:30 AM 35.6 °F 28.6 °F 24.8 °F 65% 30.10 in 10.0 mi SSE 9.2 mph - N/A   Clear
3:50 AM 35.6 °F 29.2 °F 24.8 °F 65% 30.09 in 10.0 mi SSE 8.1 mph - N/A   Clear
4:10 AM 35.6 °F 29.9 °F 26.6 °F 70% 30.09 in 10.0 mi SSE 6.9 mph - N/A   Clear
4:30 AM 35.6 °F 28.6 °F 26.6 °F 70% 30.09 in 10.0 mi SSE 9.2 mph - N/A   Clear
4:50 AM 35.6 °F 29.2 °F 26.6 °F 70% 30.08 in 10.0 mi SSE 8.1 mph - N/A   Clear
5:10 AM 35.6 °F 29.2 °F 26.6 °F 70% 30.08 in 10.0 mi SSE 8.1 mph 16.1 mph N/A   Clear
5:30 AM 35.6 °F 28.6 °F 26.6 °F 70% 30.08 in 10.0 mi SSE 9.2 mph - N/A   Clear
5:50 AM 35.6 °F 29.9 °F 28.4 °F 75% 30.08 in 10.0 mi SSE 6.9 mph - N/A   Clear
6:10 AM 35.6 °F 29.2 °F 28.4 °F 75% 30.08 in 10.0 mi SSE 8.1 mph - N/A   Clear
6:29 AM 35.6 °F 28.0 °F 28.4 °F 75% 30.08 in 10.0 mi SSE 10.4 mph - N/A   Clear
6:50 AM 35.6 °F 29.2 °F 28.4 °F 75% 30.08 in 10.0 mi SSE 8.1 mph - N/A   Clear
7:10 AM 35.6 °F 28.6 °F 28.4 °F 75% 30.08 in 10.0 mi SSE 9.2 mph - N/A   Clear
7:29 AM 35.6 °F 29.9 °F 28.4 °F 75% 30.08 in 10.0 mi SSE 6.9 mph - N/A   Clear
7:50 AM 35.6 °F 29.9 °F 28.4 °F 75% 30.09 in 10.0 mi SSE 6.9 mph - N/A   Clear
8:10 AM 35.6 °F 29.2 °F 30.2 °F 81% 30.09 in 10.0 mi SSE 8.1 mph - N/A   Clear
8:29 AM 37.4 °F 32.8 °F 30.2 °F 75% 30.09 in 10.0 mi SSE 5.8 mph - N/A   Clear
8:50 AM 37.4 °F 30.8 °F 30.2 °F 75% 30.09 in 10.0 mi SSE 9.2 mph - N/A   Clear
9:10 AM 39.2 °F 33.0 °F 30.2 °F 70% 30.09 in 10.0 mi SSE 9.2 mph - N/A   Clear
9:29 AM 39.2 °F 34.2 °F 30.2 °F 70% 30.10 in 10.0 mi SSE 6.9 mph - N/A   Clear
9:50 AM 39.2 °F 37.0 °F 32.0 °F 75% 30.11 in 10.0 mi South 3.5 mph - N/A   Clear
10:10 AM 41.0 °F 36.4 °F 32.0 °F 70% 30.11 in 10.0 mi South 6.9 mph - N/A   Clear
10:29 AM 42.8 °F 39.3 °F 32.0 °F 66% 30.11 in 10.0 mi SSE 5.8 mph - N/A   Scattered Clouds
11:10 AM 42.8 °F 38.6 °F 33.8 °F 70% 30.11 in 10.0 mi SSE 6.9 mph - N/A   Clear
11:30 AM 42.8 °F 38.6 °F 33.8 °F 70% 30.10 in 10.0 mi SSE 6.9 mph - N/A   Clear
11:50 AM 44.6 °F 39.7 °F 33.8 °F 66% 30.10 in 10.0 mi SSE 9.2 mph - N/A   Clear
12:10 PM 44.6 °F 41.4 °F 33.8 °F 66% 30.10 in 10.0 mi SSE 5.8 mph - N/A   Scattered Clouds
12:30 PM 44.6 °F 41.4 °F 33.8 °F 66% 30.11 in 10.0 mi South 5.8 mph - N/A   Scattered Clouds
12:50 PM 44.6 °F 40.7 °F 33.8 °F 66% 30.10 in 10.0 mi SSE 6.9 mph - N/A   Clear
1:10 PM - - - N/A% 30.10 in 10.0 mi SSE 5.8 mph - N/A   Clear
1:30 PM 44.6 °F 40.7 °F 33.8 °F 66% 30.10 in 10.0 mi SSE 6.9 mph - N/A   Scattered Clouds
1:50 PM 44.6 °F 42.2 °F 33.8 °F 66% 30.10 in 10.0 mi SSE 4.6 mph - N/A   Scattered Clouds
2:10 PM 46.4 °F 44.3 °F 35.6 °F 66% 30.09 in 10.0 mi SSE 4.6 mph - N/A   Clear
2:30 PM 46.4 °F 43.5 °F 35.6 °F 66% 30.09 in 10.0 mi SE 5.8 mph - N/A   Scattered Clouds
2:50 PM 46.4 °F 44.3 °F 35.6 °F 66% 30.09 in 10.0 mi SE 4.6 mph - N/A   Scattered Clouds
3:09 PM 46.4 °F - 35.6 °F 66% 30.09 in 10.0 mi Calm Calm - N/A   Scattered Clouds
3:30 PM 44.6 °F 43.1 °F 35.6 °F 71% 30.10 in 10.0 mi SE 3.5 mph - N/A   Clear
3:50 PM 44.6 °F - 33.8 °F 66% 30.10 in 10.0 mi Calm Calm - N/A   Clear
4:09 PM 42.8 °F - 33.8 °F 70% 30.10 in 10.0 mi Calm Calm - N/A   Clear
4:30 PM 42.8 °F - 33.8 °F 70% 30.10 in 10.0 mi Calm Calm - N/A   Scattered Clouds
4:50 PM 42.8 °F - 33.8 °F 70% 30.10 in 10.0 mi Calm Calm - N/A   Mostly Cloudy
5:09 PM 41.0 °F - 33.8 °F 76% 30.10 in 10.0 mi Calm Calm - N/A   Overcast
5:30 PM 39.2 °F - 33.8 °F 81% 30.10 in 10.0 mi Calm Calm - N/A   Overcast
5:50 PM 39.2 °F 37.0 °F 33.8 °F 81% 30.10 in 10.0 mi SE 3.5 mph - N/A   Overcast
6:09 PM 39.2 °F 37.0 °F 33.8 °F 81% 30.11 in 10.0 mi SE 3.5 mph - N/A   Mostly Cloudy
6:30 PM 41.0 °F - 33.8 °F 76% 30.11 in 10.0 mi Calm Calm - N/A   Mostly Cloudy
6:50 PM 39.2 °F 37.0 °F 33.8 °F 81% 30.11 in 10.0 mi ESE 3.5 mph - N/A   Scattered Clouds
7:09 PM 39.2 °F 37.0 °F 33.8 °F 81% 30.10 in 10.0 mi SE 3.5 mph - N/A   Scattered Clouds
7:30 PM 39.2 °F 35.9 °F 33.8 °F 81% 30.10 in 10.0 mi SE 4.6 mph - N/A   Mostly Cloudy
7:50 PM 41.0 °F 38.0 °F 35.6 °F 81% 30.10 in 10.0 mi SE 4.6 mph - N/A   Scattered Clouds
8:09 PM 42.8 °F 39.3 °F 35.6 °F 76% 30.10 in 10.0 mi SE 5.8 mph - N/A   Scattered Clouds
8:50 PM 42.8 °F 40.1 °F 33.8 °F 70% 30.10 in 10.0 mi SE 4.6 mph - N/A   Clear
9:09 PM 42.8 °F 40.1 °F 33.8 °F 70% 30.09 in 10.0 mi SE 4.6 mph - N/A   Scattered Clouds
9:30 PM 42.8 °F 40.1 °F 35.6 °F 76% 30.09 in 10.0 mi SE 4.6 mph - N/A   Scattered Clouds
9:50 PM 42.8 °F 38.6 °F 35.6 °F 76% 30.09 in 10.0 mi SSE 6.9 mph - N/A   Clear
10:10 PM 44.6 °F 41.4 °F 35.6 °F 71% 30.08 in 10.0 mi SSE 5.8 mph - N/A   Clear
10:30 PM 44.6 °F 40.7 °F 35.6 °F 71% 30.08 in 10.0 mi SSE 6.9 mph - N/A   Clear
10:49 PM 44.6 °F 40.7 °F 35.6 °F 71% 30.08 in 10.0 mi SSE 6.9 mph - N/A   Clear
11:10 PM 44.6 °F 40.2 °F 35.6 °F 71% 30.08 in 10.0 mi SSE 8.1 mph - N/A   Mostly Cloudy
11:30 PM 44.6 °F 40.7 °F 35.6 °F 71% 30.08 in 10.0 mi SSE 6.9 mph - N/A   Scattered Clouds
11:49 PM 42.8 °F 38.6 °F 35.6 °F 76% 30.07 in 10.0 mi SE 6.9 mph - N/A   Clear